TimeEDT,TemperatureF,Dew PointF,Humidity,Sea Level PressureIn,VisibilityMPH,Wind Direction,Wind SpeedMPH,Gust SpeedMPH,PrecipitationIn,Events,Conditions,WindDirDegrees,DateUTC
12:54 AM,52.0,50.0,93,29.69,4.0,ESE,13.8,21.9,N/A,,Overcast,120,2013-04-12 04:54:00
1:54 AM,52.0,50.0,93,29.67,4.0,SE,12.7,19.6,N/A,,Overcast,130,2013-04-12 05:54:00
2:54 AM,53.1,50.0,89,29.63,5.0,SE,11.5,20.7,N/A,,Overcast,130,2013-04-12 06:54:00
3:54 AM,52.0,50.0,93,29.62,5.0,SE,12.7,23.0,0.00,Rain,Light Rain,140,2013-04-12 07:54:00
4:17 AM,53.6,50.0,88,29.62,5.0,SE,11.5,19.6,0.03,Rain,Light Rain,130,2013-04-12 08:17:00
4:54 AM,52.0,48.9,89,29.58,6.0,SE,12.7,-,0.05,Rain,Light Rain,130,2013-04-12 08:54:00
5:54 AM,51.1,48.0,89,29.58,6.0,SE,10.4,-,0.10,Rain,Rain,140,2013-04-12 09:54:00
6:04 AM,50.0,48.2,94,29.63,4.0,WSW,10.4,-,0.05,Rain,Rain,250,2013-04-12 10:04:00
6:19 AM,50.0,48.2,94,29.61,4.0,SSE,9.2,-,0.09,Rain,Rain,160,2013-04-12 10:19:00
6:42 AM,50.0,48.2,94,29.62,3.0,SSE,11.5,-,0.16,Rain,Heavy Rain,150,2013-04-12 10:42:00
6:54 AM,50.0,48.0,93,29.61,3.0,SSE,12.7,-,0.21,Rain,Heavy Rain,150,2013-04-12 10:54:00
7:14 AM,51.8,48.2,88,29.60,4.0,SSE,13.8,19.6,0.06,Rain,Rain,150,2013-04-12 11:14:00
7:54 AM,51.1,48.9,92,29.59,7.0,SE,9.2,-,0.12,Rain,Light Rain,130,2013-04-12 11:54:00
8:54 AM,50.0,48.0,93,29.59,7.0,SE,13.8,20.7,0.04,Rain,Light Rain,140,2013-04-12 12:54:00
9:04 AM,51.8,48.2,88,29.59,10.0,SSE,11.5,-,0.00,Rain,Light Rain,150,2013-04-12 13:04:00
9:54 AM,52.0,50.0,93,29.59,7.0,South,15.0,21.9,0.00,Rain,Light Rain,170,2013-04-12 13:54:00
10:18 AM,51.8,51.8,100,29.60,10.0,South,16.1,-,0.00,Rain,Light Rain,170,2013-04-12 14:18:00
10:54 AM,53.1,51.1,93,29.61,10.0,SSE,13.8,-,0.00,,Overcast,150,2013-04-12 14:54:00
11:27 AM,55.4,53.6,94,29.61,10.0,South,13.8,-,0.00,,Overcast,170,2013-04-12 15:27:00
11:54 AM,60.1,55.0,83,29.60,10.0,South,13.8,-,0.00,,Scattered Clouds,190,2013-04-12 15:54:00
12:54 PM,60.1,54.0,80,29.59,5.0,West,16.1,27.6,0.02,Rain,Light Rain,270,2013-04-12 16:54:00
1:01 PM,59.0,55.4,88,29.60,10.0,West,13.8,23.0,0.00,Rain,Light Rain,260,2013-04-12 17:01:00
1:54 PM,61.0,51.1,70,29.60,10.0,West,18.4,33.4,0.00,,Mostly Cloudy,260,2013-04-12 17:54:00
2:25 PM,59.0,50.0,72,29.62,10.0,West,18.4,27.6,N/A,,Mostly Cloudy,260,2013-04-12 18:25:00
2:32 PM,60.8,51.8,72,29.62,10.0,West,16.1,27.6,N/A,,Scattered Clouds,270,2013-04-12 18:32:00
2:39 PM,59.0,48.2,67,29.62,10.0,West,19.6,26.5,N/A,,Mostly Cloudy,260,2013-04-12 18:39:00
2:49 PM,60.8,50.0,68,29.62,10.0,West,16.1,23.0,N/A,,Mostly Cloudy,260,2013-04-12 18:49:00
2:54 PM,60.1,48.9,67,29.60,10.0,West,15.0,-,N/A,,Mostly Cloudy,270,2013-04-12 18:54:00
3:06 PM,59.0,48.2,67,29.62,10.0,WSW,13.8,25.3,N/A,,Mostly Cloudy,250,2013-04-12 19:06:00
3:22 PM,59.0,46.4,63,29.62,10.0,WSW,19.6,26.5,N/A,,Overcast,250,2013-04-12 19:22:00
3:54 PM,60.1,46.0,60,29.61,10.0,WSW,18.4,28.8,N/A,,Mostly Cloudy,250,2013-04-12 19:54:00
4:54 PM,60.1,42.1,51,29.61,10.0,WSW,15.0,23.0,N/A,,Mostly Cloudy,240,2013-04-12 20:54:00
5:54 PM,57.9,39.9,51,29.64,10.0,West,17.3,24.2,N/A,,Overcast,280,2013-04-12 21:54:00
6:54 PM,55.9,41.0,57,29.68,10.0,West,17.3,26.5,N/A,,Overcast,280,2013-04-12 22:54:00
7:54 PM,50.0,37.9,63,29.73,10.0,WNW,23.0,35.7,N/A,,Scattered Clouds,290,2013-04-12 23:54:00
8:18 PM,46.4,37.4,71,29.75,10.0,WNW,19.6,27.6,N/A,,Mostly Cloudy,290,2013-04-13 00:18:00
8:54 PM,43.0,33.1,68,29.81,10.0,WNW,18.4,28.8,N/A,,Overcast,300,2013-04-13 00:54:00
9:14 PM,42.8,30.2,61,29.79,10.0,WNW,12.7,24.2,N/A,,Overcast,290,2013-04-13 01:14:00
9:54 PM,41.0,30.0,65,29.83,10.0,WNW,13.8,23.0,N/A,,Overcast,290,2013-04-13 01:54:00
10:54 PM,41.0,30.0,65,29.83,10.0,West,9.2,-,N/A,,Overcast,270,2013-04-13 02:54:00
11:54 PM,39.9,30.9,70,29.80,10.0,WNW,16.1,-,N/A,,Overcast,290,2013-04-13 03:54:00